Greybull, WY

10:20 AM MDT on October 22, 2017 (GMT -0600)
South Big Horn County

Weather History for KGEY - July, 2012

Change the Weather History Date:

Friday, July 13, 2012

  Actual Average Record
Temperature  
Mean Temperature 83 °F 74 °F  
Max Temperature 102 °F 90 °F 105 °F (2005)
Min Temperature 64 °F 57 °F 47 °F (2008)
Degree Days  
Heating Degree Days 0 0  
Month to date heating degree days 1  
Since 1 June heating degree days 71  
Since 1 July heating degree days 1  
Cooling Degree Days 18 9  
Month to date cooling degree days 102  
Year to date cooling degree days 228  
Since 1 June cooling degree days 208  
Growing Degree Days 33 (Base 50)    
Moisture  
Dew Point 38 °F    
Average Humidity 23    
Maximum Humidity 43    
Minimum Humidity 8    
Precipitation  
Precipitation 0.00 in 0.02 in 0.01 in (2009)
Month to date precipitation 0.34  
Year to date precipitation 4.71  
Sea Level Pressure  
Sea Level Pressure 29.85 in    
Wind  
Wind Speed 5 mph (NW)    
Max Wind Speed 25 mph    
Max Gust Speed 32 mph    
Visibility 10 miles    
Events      
T = Trace of Precipitation, MM = Missing Value Source: NWS Daily Summary

Daily Weather History Graph

Daily Weather History Graph

Search for Another Location

Airport or City:

Trip Planner

Search our weather history database for the weather conditions in past years. The results will help you decide how hot, cold, wet, or windy it might be!

Date:

Astronomy

Jul. 13, 2012 Rise Set
Actual Time 5:40 AM MDT 8:55 PM MDT
Civil Twilight 5:04 AM MDT 9:30 PM MDT
Nautical Twilight 4:18 AM MDT 10:16 PM MDT
Astronomical Twilight 3:21 AM MDT 11:13 PM MDT
Moon 1:22 AM MDT (7/13) 4:26 PM MDT (7/13)
Length of Visible Light 16h 26m
Length of Day
15h 15m
Waning Crescent, 26% of the Moon is Illuminated
Jul 13
Waning Crescent
Jul 18
New
Jul 26
First Quarter
Aug 1
Full
Aug 9
Last Quarter

Hourly Weather History & Observations

Time (MDT) Temp. Dew Point Humidity Pressure Visibility Wind Dir Wind Speed Gust Speed Precip Events Conditions
12:53 AM 73.9 °F 39.9 °F 29% 29.88 in 10.0 mi Calm Calm - N/A   Clear
1:53 AM 73.9 °F 37.9 °F 27% 29.88 in 10.0 mi ESE 3.5 mph - N/A   Clear
2:53 AM 68.0 °F 41.0 °F 37% 29.89 in 10.0 mi Variable 3.5 mph - N/A   Clear
3:53 AM 66.0 °F 41.0 °F 40% 29.89 in 10.0 mi Calm Calm - N/A   Clear
4:53 AM 66.0 °F 37.9 °F 36% 29.88 in 10.0 mi NNE 4.6 mph - N/A   Clear
5:53 AM 64.9 °F 42.1 °F 43% 29.89 in 10.0 mi Calm Calm - N/A   Clear
6:53 AM 66.9 °F 43.0 °F 42% 29.90 in 10.0 mi Calm Calm - N/A   Clear
7:53 AM 71.1 °F 41.0 °F 34% 29.91 in 10.0 mi WNW 3.5 mph - N/A   Clear
8:53 AM 80.1 °F 39.9 °F 24% 29.92 in 10.0 mi North 8.1 mph - N/A   Clear
9:53 AM 84.9 °F 39.9 °F 20% 29.90 in 10.0 mi East 4.6 mph - N/A   Clear
10:53 AM 90.0 °F 41.0 °F 18% 29.88 in 10.0 mi East 8.1 mph - N/A   Clear
11:53 AM 93.9 °F 37.9 °F 14% 29.87 in 10.0 mi Variable 4.6 mph - N/A   Clear
12:53 PM 96.1 °F 37.9 °F 13% 29.84 in 10.0 mi SSE 8.1 mph - N/A   Clear
1:53 PM 100.0 °F 37.0 °F 11% 29.81 in 10.0 mi SE 9.2 mph - N/A   Clear
2:53 PM 102.0 °F 33.1 °F 9% 29.79 in 10.0 mi SSW 11.5 mph - N/A   Clear
3:53 PM 100.0 °F 30.9 °F 9% 29.78 in 10.0 mi South 11.5 mph - N/A   Clear
4:53 PM 100.0 °F 28.0 °F 8% 29.77 in 10.0 mi SSW 8.1 mph - N/A   Clear
5:53 PM 100.0 °F 30.0 °F 9% 29.75 in 10.0 mi NNE 6.9 mph - N/A   Clear
6:53 PM 93.0 °F 37.0 °F 14% 29.77 in 10.0 mi NNW 25.3 mph - N/A   Clear
7:53 PM 90.0 °F 37.9 °F 16% 29.82 in 10.0 mi West 23.0 mph 32.2 mph N/A   Clear
9:53 PM 84.0 °F 44.1 °F 25% 29.86 in 10.0 mi WNW 12.7 mph - N/A   Clear
10:53 PM 84.0 °F 43.0 °F 24% 29.86 in 10.0 mi NW 13.8 mph - N/A   Clear
11:53 PM 82.9 °F 43.0 °F 24% 29.84 in 10.0 mi WNW 4.6 mph - N/A   Clear